Location: Rehoboth Beach
(38.7438°N, 75.1341°W)
Time: 23:55:15
(UTC-04:00)

HST - Visible Passes

Search period start: 21 August 2014 00:00
Search period end: 31 August 2014 00:00
Orbit: 547 x 551 km, 28.5° (Epoch: 20 August)

Date Brightness Start Highest point End Pass type
(mag) Time Alt. Az. Time Alt. Az. Time Alt. Az.
21 Aug 3.3 04:26:28 10° SSE 04:26:28 10° SSE 04:26:46 10° SSE visible
22 Aug 3.2 04:19:57 12° SSE 04:19:57 12° SSE 04:20:49 10° SE visible
23 Aug 3.2 04:13:26 13° SE 04:13:26 13° SE 04:14:18 10° SE visible
23 Aug 2.5 05:49:39 10° SW 05:52:44 20° S 05:55:50 10° SE visible
24 Aug 3.3 04:06:56 12° SE 04:06:56 12° SE 04:07:35 10° SE visible
24 Aug 2.5 05:42:39 10° SW 05:45:43 20° S 05:48:47 10° SE visible
25 Aug 3.4 04:00:28 11° SE 04:00:28 11° SE 04:00:46 10° SE visible
25 Aug 2.5 05:36:02 11° SW 05:38:42 19° S 05:41:41 10° SE visible
26 Aug 2.6 05:29:38 13° SW 05:31:40 18° S 05:34:30 10° SE visible
27 Aug 2.6 05:23:18 14° SSW 05:24:38 16° SSW 05:27:13 10° SSE visible
28 Aug 2.7 05:17:03 14° SSW 05:17:35 14° SSW 05:19:47 10° SSE visible
29 Aug 3.0 05:10:54 12° SSW 05:10:54 12° SSW 05:12:04 10° S visible
